Regional Weather Roundup
Issued by NWS

Home | Current Version | Previous Version | Text Only | Print | Product List | Glossary On
Versions: 1 2 3 4 5 6 7 8 9 10 11 12 13 14 15 16 17 18 19 20 21 22 23 24 25 26 27 28 29 30 31 32 33 34 35 36 37 38 39 40 41 42 43 44 45 46 47 48 49 50
786
ASUS43 KLMK 300802
RWRKY
KENTUCKY REGIONAL WEATHER ROUNDUP
NATIONAL WEATHER SERVICE LOUISVILLE KY
400 AM EDT FRI SEP 30 2016

NOTE "FAIR" INDICATES FEW OR NO CLOUDS BELOW 12,000 FEET
WITH NO SIGNIFICANT WEATHER AND/OR OBSTRUCTIONS TO VISIBILITY.

KYZ001>023-026-027-061>063-070>075-300900-
WESTERN AND SOUTH CENTRAL KENTUCKY

CITY           SKY/WX    TMP DP  RH WIND       PRES   REMARKS
PADUCAH        CLOUDY    60  57  89 CALM      30.07F
HENDERSON      PTCLDY    55  52  88 W3        30.04S
OWENSBORO      NOT AVBL
HOPKINSVILLE   CLOUDY    56  56 100 NW5       30.05F
BOWLING GREEN  MOCLDY    51  49  92 S3        30.04F
GLASGOW        FOG      N/A N/A N/A CALM      30.04F VSB 1/2
$$

KYZ024-025-028>034-038-045-046-053-300900-
NORTH CENTRAL KENTUCKY

CITY           SKY/WX    TMP DP  RH WIND       PRES   REMARKS
LOUISVILLE/SDF LGT RAIN  57  54  89 W8        30.01F
LOUISVILLE/LOU LGT RAIN  56  54  93 NW6       30.02F
FORT KNOX      LGT RAIN  54  52  94 N6        30.00F
$$

KYZ035>037-039>044-047>052-055>060-089>105-300900-
NORTHEAST KENTUCKY

CITY           SKY/WX    TMP DP  RH WIND       PRES   REMARKS
LEXINGTON      CLOUDY    55  53  93 SW5       30.03F FOG
COVINGTON      CLOUDY    58  56  93 S7        30.02S
FRANKFORT      CLOUDY    56  53  90 CALM      30.02S FOG
$$

KYZ054-064>069-076>088-106>120-300900-
SOUTHEAST KENTUCKY

CITY           SKY/WX    TMP DP  RH WIND       PRES   REMARKS
JACKSON        FOG       53  52  96 CALM      30.03F VSB 1/4
LONDON         CLOUDY    48  46  93 CALM      30.04F
SOMERSET       MOCLDY    48  48 100 CALM      30.07F
MIDDLESBORO    CLOUDY    51  51  99 CALM      30.05F
MONTICELLO     FOG       49  48  97 VRB7      30.07S VSB 1/2
$$





USA.gov is the U.S. government's official web portal to all federal, state and local government web resources and services.